User: anonymous   Login
Location: Caltech
(34.1382°N, 118.1253°W)
Time: 16:07:34
(UTC-07:00)
Language:

TMSAT-1 - Orbit

View from above orbital plane
View from above orbital plane
View from above satellite
View from above satellite

Ground track
Ground track

The orbit data is extracted from the following two-line orbital elements,

1 25396U 98043C   14297.45262712  .00000231  00000-0  11822-3 0  9848
2 25396 098.4568 254.2518 0001531 255.7932 253.4126 14.24212763846550
Epoch (UTC): 24 October 2014 10:51:46
Eccentricity: 0.0001531
inclination: 98.4568°
perigee height: 810 km
apogee height: 812 km
right ascension of ascending node: 254.2518°
argument of perigee: 255.7932°
revolutions per day: 14.24212763
mean anomaly at epoch: 253.4126°
orbit number at epoch: 84655

The dashed part of the orbit path shows where the satellite is in the earth's shadow,  

DLR